Weather History for Hawthorne, CA

Change the Weather History Date:

Friday, February 7, 2014

  Actual Average Record
Temperature  
Mean Temperature 56 °F -  
Max Temperature 61 °F 64 °F 91 °F (1954)
Min Temperature 50 °F 49 °F 37 °F (1948)
Degree Days  
Heating Degree Days 10    
Growing Degree Days 6 (Base 50)    
Moisture  
Dew Point 48 °F    
Average Humidity 75    
Maximum Humidity 93    
Minimum Humidity 58    
Precipitation  
Precipitation 0.01 in - - ()
Sea Level Pressure  
Sea Level Pressure 30.15 in    
Wind  
Wind Speed 2 mph (WSW)    
Max Wind Speed 10 mph    
Max Gust Speed -    
Visibility 8 miles    
Events      
Averages and records for this station are not official NWS values.
T = Trace of Precipitation, MM = Missing Value Source: NWS Daily Summary

Daily Weather History Graph

Daily Weather History Graph

Search for Another Location

Airport:

Trip Planner

Search our weather history database for the weather conditions in past years. The results will help you decide how hot, cold, wet, or windy it might be!

Date:

Astronomy

Feb. 07, 2014 Rise Set
Actual Time 6:45 AM PST 5:30 PM PST
Civil Twilight 6:19 AM PST 5:55 PM PST
Nautical Twilight 5:49 AM PST 6:25 PM PST
Astronomical Twilight 5:20 AM PST 6:54 PM PST
Moon 11:47 AM PST (2/7) 1:03 AM PST (2/7)
Length of Visible Light 11h 36m
Length of Day
10h 44m
First Quarter, 60% of the Moon is Illuminated
Feb 7
First Quarter
Feb 14
Full
Feb 22
Last Quarter
Mar 1
New
Mar 8
First Quarter

Hourly Weather History & Observations

Time (PST) Temp. Dew Point Humidity Pressure Visibility Wind Dir Wind Speed Gust Speed Precip Events Conditions
12:26 AM 53.6 °F 50.0 °F 88% 30.05 in 10.0 mi Calm Calm - N/A   Overcast
12:53 AM 53.1 °F 50.0 °F 89% 30.05 in 10.0 mi Calm Calm - N/A   Overcast
1:53 AM 53.1 °F 50.0 °F 89% 30.06 in 5.0 mi Calm Calm - N/A   Overcast
2:15 AM 53.6 °F 50.0 °F 88% 30.05 in 5.0 mi Calm Calm - N/A   Overcast
2:42 AM 53.6 °F 50.0 °F 88% 30.06 in 5.0 mi Calm Calm - N/A   Overcast
2:53 AM 53.1 °F 50.0 °F 89% 30.06 in 5.0 mi Calm Calm - N/A   Mostly Cloudy
3:01 AM 51.8 °F 48.2 °F 88% 30.06 in 5.0 mi Calm Calm - N/A   Mostly Cloudy
3:38 AM 53.6 °F 48.2 °F 82% 30.08 in 5.0 mi Calm Calm - N/A   Overcast
3:53 AM 53.1 °F 48.9 °F 86% 30.07 in 5.0 mi Calm Calm - N/A   Mostly Cloudy
4:05 AM 51.8 °F 48.2 °F 88% 30.07 in 5.0 mi Calm Calm - N/A   Mostly Cloudy
4:53 AM 52.0 °F 48.0 °F 86% 30.07 in 5.0 mi Calm Calm - 0.01 in   Clear
5:53 AM 50.0 °F 48.0 °F 93% 30.10 in 4.0 mi Calm Calm - N/A   Clear
6:53 AM 50.0 °F 46.9 °F 89% 30.13 in 4.0 mi Calm Calm - N/A   Scattered Clouds
7:53 AM 52.0 °F 50.0 °F 93% 30.15 in 3.0 mi Calm Calm - N/A   Overcast
8:53 AM 54.0 °F 50.0 °F 86% 30.17 in 4.0 mi Calm Calm - N/A   Mostly Cloudy
9:53 AM 57.0 °F 48.9 °F 74% 30.18 in 9.0 mi ESE 3.5 mph - N/A   Overcast
10:12 AM 59.0 °F 48.2 °F 67% 30.18 in 10.0 mi Calm Calm - N/A   Mostly Cloudy
10:43 AM 59.0 °F 48.2 °F 67% 30.19 in 10.0 mi Calm Calm - N/A   Mostly Cloudy
10:53 AM 59.0 °F 48.9 °F 69% 30.19 in 10.0 mi Calm Calm - N/A   Scattered Clouds
11:17 AM 60.8 °F 48.2 °F 63% 30.17 in 10.0 mi Variable 4.6 mph - N/A   Mostly Cloudy
11:53 AM 60.1 °F 46.9 °F 62% 30.17 in 10.0 mi Calm Calm - N/A   Overcast
12:24 PM 59.0 °F 46.4 °F 63% 30.16 in 10.0 mi WSW 4.6 mph - N/A   Mostly Cloudy
12:53 PM 61.0 °F 46.0 °F 58% 30.16 in 10.0 mi WSW 8.1 mph - N/A   Mostly Cloudy
1:22 PM 60.8 °F 46.4 °F 59% 30.14 in 10.0 mi West 9.2 mph - N/A   Partly Cloudy
1:53 PM 61.0 °F 46.0 °F 58% 30.15 in 10.0 mi WSW 10.4 mph - N/A   Partly Cloudy
2:35 PM 60.8 °F 46.4 °F 59% 30.15 in 10.0 mi West 10.4 mph - N/A   Mostly Cloudy
2:53 PM 60.1 °F 46.9 °F 62% 30.15 in 10.0 mi SW 9.2 mph - N/A   Overcast
3:53 PM 60.1 °F 46.0 °F 60% 30.14 in 10.0 mi WSW 8.1 mph - N/A   Partly Cloudy
4:53 PM 59.0 °F 46.0 °F 62% 30.13 in 10.0 mi West 9.2 mph - N/A   Clear
5:53 PM 57.0 °F 46.0 °F 67% 30.16 in 10.0 mi WSW 5.8 mph - N/A   Partly Cloudy
6:53 PM 57.0 °F 46.9 °F 69% 30.18 in 10.0 mi Variable 3.5 mph - N/A   Clear
7:53 PM 57.0 °F 48.0 °F 72% 30.19 in 10.0 mi West 3.5 mph - N/A   Clear
8:27 PM 57.2 °F 48.2 °F 72% 30.20 in 10.0 mi Calm Calm - N/A   Mostly Cloudy
8:53 PM 57.0 °F 48.9 °F 74% 30.21 in 10.0 mi West 6.9 mph - N/A   Mostly Cloudy
9:01 PM 57.2 °F 48.2 °F 72% 30.21 in 10.0 mi WNW 3.5 mph - N/A   Mostly Cloudy
9:44 PM 57.2 °F 48.2 °F 72% 30.22 in 10.0 mi Calm Calm - N/A   Overcast
9:53 PM 57.0 °F 48.9 °F 74% 30.22 in 10.0 mi Calm Calm - N/A   Overcast
10:53 PM 57.0 °F 48.9 °F 74% 30.22 in 10.0 mi Calm Calm - N/A   Overcast
11:10 PM 57.2 °F 48.2 °F 72% 30.21 in 10.0 mi Calm Calm - N/A   Overcast
11:30 PM 57.2 °F 48.2 °F 72% 30.22 in 10.0 mi Calm Calm - N/A   Overcast
11:53 PM 55.9 °F 48.0 °F 75% 30.23 in 10.0 mi Calm Calm - N/A   Overcast